Location: Quedlinburg
(51.7921°N, 11.1414°E)
Time: 05:19:48
(UTC+02:00)

STRAND 1 - Pass Details

Date: 22 March 2026
Orbit: 761 x 775 km, 98.4° (Epoch: 16 April)

Event Time Altitude Azimuth Distance (km) Brightness Sun altitude
Rises 03:29:22 0° 117° (ESE) 3,237 ? -24.6°
Reaches altitude 10° 03:32:12 10° 101° (E) 2,312 ? -24.2°
Maximum altitude 03:35:49 20° 55° (NE) 1,726 ? -23.8°
Drops below altitude 10° 03:39:25 10° 10° (N) 2,316 ? -23.3°
Sets 03:42:16 0° 354° (N) 3,244 ? -22.9°
